Back to catalog

OPS 4682 DEB

AlivePO
NORAD 51498·DEBRIS·🇺🇸 United States

Launched Apr 3, 1965 from Vandenberg Space Force Base

Loading…

Next Passes (next 24 hours)

TLE

AgingSource: Space-Track

Epoch: Sep 8, 2026, 07:47 UTC

1 51498U 65027GJ  26251.32480084  .00000583  00000-0  19693-2 0  9998
2 51498  90.2550  14.5285 0026736 206.6933 153.2814 12.97828011536791

Track OPS 4682 DEB in real time with AllMySat

Download on the App Store